Sigonella, Italy

7:04 AM CEST on July 28, 2017 (GMT +0200)
Sigonella Mil

Weather History for LICZ - November, 2012

Change the Weather History Date:

Friday, November 23, 2012

  Actual Average Record
Temperature  
Mean Temperature 62 °F -  
Max Temperature 74 °F 64 °F 75 °F (1996)
Min Temperature 49 °F 45 °F 42 °F (1998)
Degree Days  
Heating Degree Days 4    
Growing Degree Days 12 (Base 50)    
Moisture  
Dew Point 55 °F    
Average Humidity 89    
Maximum Humidity 100    
Minimum Humidity 53    
Precipitation  
Precipitation 0.00 in 0.08 in - ()
Sea Level Pressure  
Sea Level Pressure 30.20 in    
Wind  
Wind Speed 4 mph ()    
Max Wind Speed 8 mph    
Max Gust Speed -    
Visibility 5.7 miles    
Events      
Averages and records for this station are not official NWS values.
T = Trace of Precipitation, MM = Missing Value Source: Averaged Metar Reports

Daily Weather History Graph

Daily Weather History Graph

Search for Another Location

Airport or City:

Trip Planner

Search our weather history database for the weather conditions in past years. The results will help you decide how hot, cold, wet, or windy it might be!

Date:

Astronomy

Nov. 23, 2012 Rise Set
Actual Time 6:48 AM CET 4:45 PM CET
Civil Twilight 6:19 AM CET 5:13 PM CET
Nautical Twilight 5:47 AM CET 5:45 PM CET
Astronomical Twilight 5:16 AM CET 6:16 PM CET
Moon 1:46 PM CET (11/23) 1:55 AM CET (11/23)
Length of Visible Light 10h 53m
Length of Day
9h 56m
Waxing Gibbous, 77% of the Moon is Illuminated
Nov 23
Waxing Gibbous
Nov 28
Full
Dec 6
Last Quarter
Dec 13
New
Dec 20
First Quarter

Hourly Weather History & Observations

Time (CET) Temp. Dew Point Humidity Pressure Visibility Wind Dir Wind Speed Gust Speed Precip Events Conditions
12:55 AM 55.4 °F 55.4 °F 100% 30.21 in - West 5.8 mph - N/A   Clear
1:00 AM 56 °F 56 °F 99% 30.22 in 6 mi West 5.8 mph - -  
1:55 AM 55.4 °F 55.4 °F 100% 30.21 in - West 4.6 mph - N/A   Clear
2:55 AM 51.8 °F 51.8 °F 100% 30.18 in - WSW 3.5 mph - N/A   Clear
3:55 AM 51.8 °F 51.8 °F 100% 30.18 in - WSW 2.3 mph - N/A   Clear
4:00 AM 51 °F 51 °F 100% 30.21 in 6 mi WSW 2.3 mph - -  
4:55 AM 51.8 °F 51.8 °F 100% 30.18 in - West 3.5 mph - N/A   Clear
5:55 AM 50.0 °F 50.0 °F 100% 30.18 in 5.0 mi West 3.5 mph - N/A   Unknown
6:55 AM 51.8 °F 50.0 °F 94% 30.21 in 4.3 mi WNW 5.8 mph - N/A   Mostly Cloudy
7:00 AM 51 °F 51 °F 99% 30.22 in 4 mi WNW 5.8 mph - -   Mist
7:55 AM 51.8 °F 51.8 °F 100% 30.21 in 3.7 mi Calm Calm - N/A   Unknown
8:55 AM 53.6 °F 53.6 °F 100% 30.21 in 3.7 mi WNW 3.5 mph - N/A   Unknown
9:55 AM 62.6 °F 59.0 °F 88% 30.21 in 5.0 mi WNW 6.9 mph - N/A   Scattered Clouds
10:00 AM 63 °F 60 °F 85% 30.24 in 5 mi WNW 6.9 mph - -   Mist
10:55 AM 66.2 °F 59.0 °F 78% 30.21 in 6.2 mi WNW 3.5 mph - N/A   Scattered Clouds
11:55 AM 68.0 °F 55.4 °F 64% 30.21 in 6.2 mi West 8.1 mph - N/A   Mostly Cloudy
12:55 PM 69.8 °F 59.0 °F 68% 30.18 in 6.2 mi WSW 3.5 mph - N/A   Scattered Clouds
1:00 PM 70 °F 59 °F 60% 30.19 in 6 mi WSW 3.5 mph - -   Partly Cloudy
1:55 PM 69.8 °F 51.8 °F 53% 30.18 in 6.2 mi West 4.6 mph - N/A   Scattered Clouds
2:55 PM 69.8 °F 53.6 °F 56% 30.15 in 6.2 mi ESE 2.3 mph - N/A   Scattered Clouds
3:55 PM 69.8 °F 57.2 °F 64% 30.15 in 6.2 mi SE 3.5 mph - N/A   Scattered Clouds
4:00 PM 69 °F 56 °F 55% 30.18 in 6 mi SE 3.5 mph - -   Partly Cloudy
4:55 PM 62.6 °F 59.0 °F 88% 30.18 in 6.2 mi East 4.6 mph - N/A   Scattered Clouds
5:55 PM 62.6 °F 59.0 °F 88% 30.18 in 6.2 mi NNE 4.6 mph - N/A   Scattered Clouds
6:55 PM 59.0 °F 59.0 °F 100% 30.18 in 6.2 mi NE 6.9 mph - N/A   Scattered Clouds
7:00 PM 59 °F 59 °F 100% 30.20 in 6 mi NE 6.9 mph - -   Partly Cloudy
7:55 PM 59.0 °F 59.0 °F 100% 30.21 in 6.2 mi West 2.3 mph - N/A   Scattered Clouds
8:55 PM 57.2 °F 57.2 °F 100% 30.21 in 6.2 mi NW 4.6 mph - N/A   Scattered Clouds
9:55 PM 57.2 °F 57.2 °F 100% 30.21 in 6.2 mi WNW 3.5 mph - N/A   Scattered Clouds
10:00 PM 57 °F 57 °F 99% 30.23 in 6 mi WNW 3.5 mph - -   Scattered Clouds
10:55 PM 55.4 °F 55.4 °F 100% 30.21 in 6.2 mi NW 4.6 mph - N/A   Scattered Clouds
11:55 PM 53.6 °F 53.6 °F 100% 30.21 in 6.2 mi West 4.6 mph - N/A   Partly Cloudy